When you browse on this site, cookies collect data to enhance your experience and personalize the content and advertising you see.
Visit our Privacy Policy to learn more. By continuing to use the site, you agree to this use of cookies and data.
  • In Slovakia
  • List of Countries
  • For 7 days
  • Water Temperature
  • Satellite Maps
  • Weather Map
  • Weather Widgets
  • user-avatar
    Login

    Hourly Weather Zdreby

    Today, 19 February, Tuesday

    Time Temperature Precipitation Wind Pressure Humidity
    00:00 0°C° 0 mm 4 mps 747 mmHg 93%
    01:00 0°C° 0 mm 4 mps 747 mmHg 93%
    02:00 0°C° 0 mm 4 mps 746 mmHg 93%
    03:00 0°C° 0 mm 4 mps 746 mmHg 94%
    04:00 -1°C° 0 mm 4 mps 745 mmHg 94%
    05:00 -1°C° 0 mm 4 mps 744 mmHg 94%
    06:00 -1°C° 0 mm 4 mps 744 mmHg 94%
    07:00 -1°C° 0 mm 4 mps 743 mmHg 94%
    08:00 -1°C° 0 mm 5 mps 743 mmHg 93%
    09:00 0°C° 0 mm 5 mps 742 mmHg 88%
    10:00 +1°C° 0 mm 5 mps 742 mmHg 82%
    11:00 +2°C° 0 mm 5 mps 742 mmHg 76%
    12:00 +3°C° 0 mm 5 mps 741 mmHg 71%
    13:00 +4°C° 0 mm 6 mps 741 mmHg 67%
    14:00 +5°C° 0 mm 6 mps 740 mmHg 62%
    15:00 +5°C° 0 mm 6 mps 740 mmHg 63%
    16:00 +6°C° 0 mm 5 mps 739 mmHg 65%
    17:00 +6°C° 0 mm 5 mps 739 mmHg 66%
    18:00 +5°C° 0 mm 5 mps 739 mmHg 72%
    19:00 +3°C° 0 mm 5 mps 739 mmHg 77%
    20:00 +4°C° 0 mm 4 mps 739 mmHg 82%
    21:00 +3°C° 0.3 mm 5 mps 739 mmHg 83%
    22:00 +3°C° 0.3 mm 5 mps 739 mmHg 84%
    23:00 +3°C° 0.3 mm 5 mps 739 mmHg 85%

    Tomorrow, 20 February, Wednesday

    Time Temperature Precipitation Wind Pressure Humidity
    00:00 +2°C° 0 mm 5 mps 739 mmHg 87%
    01:00 +2°C° 0 mm 5 mps 739 mmHg 89%
    02:00 +1°C° 0 mm 5 mps 739 mmHg 90%
    03:00 +1°C° 0.1 mm 5 mps 738 mmHg 89%
    04:00 +2°C° 0.1 mm 6 mps 738 mmHg 88%
    05:00 +2°C° 0.1 mm 7 mps 738 mmHg 86%
    06:00 +2°C° 0.1 mm 6 mps 738 mmHg 85%
    07:00 +2°C° 0.1 mm 6 mps 738 mmHg 84%
    08:00 +1°C° 0.1 mm 6 mps 739 mmHg 83%
    09:00 0°C° 0.1 mm 7 mps 739 mmHg 81%
    10:00 +2°C° 0.1 mm 7 mps 739 mmHg 79%
    11:00 +1°C° 0.1 mm 8 mps 739 mmHg 77%
    12:00 +1°C° 0 mm 8 mps 739 mmHg 77%
    13:00 +1°C° 0 mm 8 mps 740 mmHg 77%
    14:00 +1°C° 0 mm 8 mps 740 mmHg 77%
    15:00 +1°C° 0 mm 8 mps 740 mmHg 75%
    16:00 +1°C° 0 mm 8 mps 741 mmHg 74%
    17:00 0°C° 0 mm 9 mps 741 mmHg 72%
    18:00 -1°C° 0 mm 8 mps 742 mmHg 71%
    19:00 -2°C° 0 mm 7 mps 742 mmHg 71%
    20:00 -3°C° 0 mm 6 mps 743 mmHg 70%
    21:00 -3°C° 0 mm 6 mps 743 mmHg 70%
    22:00 -4°C° 0 mm 5 mps 744 mmHg 70%
    23:00 -4°C° 0 mm 5 mps 744 mmHg 71%

    Day after tomorrow, 21 February, Thursday

    Time Temperature Precipitation Wind Pressure Humidity
    00:00 -3°C° 0 mm 4 mps 745 mmHg 70%
    01:00 -3°C° 0 mm 4 mps 745 mmHg 69%
    02:00 -3°C° 0 mm 4 mps 745 mmHg 69%
    03:00 -3°C° 0 mm 4 mps 745 mmHg 68%
    04:00 -2°C° 0 mm 3 mps 745 mmHg 68%
    05:00 -2°C° 0 mm 3 mps 745 mmHg 68%
    06:00 -2°C° 0 mm 3 mps 746 mmHg 69%
    07:00 -2°C° 0 mm 2 mps 746 mmHg 70%
    08:00 -2°C° 0 mm 2 mps 746 mmHg 71%
    09:00 -2°C° 0 mm 2 mps 746 mmHg 67%
    10:00 -1°C° 0 mm 2 mps 746 mmHg 63%
    11:00 -1°C° 0 mm 2 mps 746 mmHg 59%
    12:00 -1°C° 0 mm 2 mps 746 mmHg 59%
    13:00 +2°C° 0 mm 1 mps 746 mmHg 59%
    14:00 +2°C° 0 mm 1 mps 746 mmHg 59%
    15:00 +2°C° 0 mm 1 mps 745 mmHg 60%
    16:00 +1°C° 0 mm 1 mps 745 mmHg 61%
    17:00 -1°C° 0 mm 2 mps 745 mmHg 62%
    18:00 -1°C° 0 mm 2 mps 746 mmHg 61%
    19:00 -1°C° 0 mm 3 mps 746 mmHg 61%
    20:00 -2°C° 0 mm 3 mps 747 mmHg 60%
    21:00 -2°C° 0.1 mm 3 mps 747 mmHg 60%
    22:00 -4°C° 0.1 mm 4 mps 748 mmHg 60%
    23:00 -4°C° 0.1 mm 4 mps 748 mmHg 60%

    22 February, Friday

    Time Temperature Precipitation Wind Pressure Humidity
    00:00 -4°C° 0 mm 4 mps 749 mmHg 60%
    01:00 -4°C° 0 mm 4 mps 750 mmHg 60%
    02:00 -5°C° 0 mm 4 mps 750 mmHg 60%
    03:00 -5°C° 0 mm 4 mps 751 mmHg 61%
    04:00 -6°C° 0 mm 5 mps 752 mmHg 62%
    05:00 -7°C° 0 mm 5 mps 752 mmHg 63%
    06:00 -7°C° 0 mm 5 mps 753 mmHg 63%
    07:00 -9°C° 0 mm 6 mps 754 mmHg 63%
    08:00 -10°C° 0 mm 6 mps 755 mmHg 62%
    09:00 -9°C° 0 mm 6 mps 756 mmHg 58%
    10:00 -9°C° 0 mm 6 mps 757 mmHg 53%
    11:00 -9°C° 0 mm 6 mps 758 mmHg 48%
    12:00 -7°C° 0 mm 5 mps 759 mmHg 45%
    13:00 -6°C° 0 mm 5 mps 759 mmHg 41%
    14:00 -6°C° 0 mm 5 mps 760 mmHg 37%
    15:00 -5°C° 0 mm 4 mps 760 mmHg 37%
    16:00 -5°C° 0 mm 4 mps 760 mmHg 37%
    17:00 -5°C° 0 mm 4 mps 761 mmHg 37%
    18:00 -5°C° 0 mm 4 mps 761 mmHg 38%
    19:00 -7°C° 0 mm 4 mps 762 mmHg 40%
    20:00 -6°C° 0 mm 3 mps 762 mmHg 42%
    21:00 -6°C° 0 mm 3 mps 762 mmHg 42%
    22:00 -6°C° 0 mm 3 mps 762 mmHg 42%
    23:00 -6°C° 0 mm 3 mps 763 mmHg 43%

    23 February, Saturday

    Time Temperature Precipitation Wind Pressure Humidity
    00:00 -6°C° 0 mm 3 mps 763 mmHg 45%
    01:00 -7°C° 0 mm 3 mps 763 mmHg 47%
    02:00 -7°C° 0 mm 3 mps 763 mmHg 48%
    03:00 -7°C° 0 mm 3 mps 762 mmHg 49%
    04:00 -6°C° 0 mm 2 mps 762 mmHg 50%
    05:00 -6°C° 0 mm 2 mps 762 mmHg 52%
    06:00 -6°C° 0 mm 2 mps 761 mmHg 53%
    07:00 -6°C° 0 mm 2 mps 761 mmHg 54%
    08:00 -6°C° 0 mm 2 mps 761 mmHg 56%
    09:00 -5°C° 0 mm 2 mps 761 mmHg 55%
    10:00 -5°C° 0 mm 3 mps 761 mmHg 54%
    11:00 -5°C° 0 mm 3 mps 761 mmHg 54%
    12:00 -5°C° 0.1 mm 3 mps 760 mmHg 60%
    13:00 -5°C° 0.1 mm 4 mps 760 mmHg 66%
    14:00 -4°C° 0.1 mm 4 mps 759 mmHg 72%
    15:00 -4°C° 0.1 mm 4 mps 759 mmHg 74%
    16:00 -5°C° 0.1 mm 5 mps 758 mmHg 76%
    17:00 -5°C° 0.1 mm 5 mps 758 mmHg 78%
    18:00 -3°C° 0 mm 4 mps 758 mmHg 81%
    19:00 -3°C° 0 mm 4 mps 757 mmHg 85%
    20:00 -2°C° 0 mm 3 mps 757 mmHg 89%
    21:00 -1°C° 0.1 mm 3 mps 757 mmHg 92%
    22:00 -1°C° 0.1 mm 3 mps 757 mmHg 94%
    23:00 -1°C° 0.1 mm 3 mps 757 mmHg 97%

    24 February, Sunday

    Time Temperature Precipitation Wind Pressure Humidity
    00:00 -1°C° 0 mm 3 mps 757 mmHg 97%
    01:00 -1°C° 0 mm 2 mps 758 mmHg 97%
    02:00 -1°C° 0 mm 2 mps 758 mmHg 97%
    03:00 -1°C° 0 mm 2 mps 758 mmHg 97%
    04:00 -1°C° 0 mm 2 mps 758 mmHg 97%
    05:00 -1°C° 0 mm 2 mps 758 mmHg 97%
    06:00 -1°C° 0 mm 2 mps 758 mmHg 97%
    07:00 +1°C° 0 mm 1 mps 758 mmHg 97%
    08:00 +1°C° 0 mm 1 mps 758 mmHg 97%
    09:00 +2°C° 0 mm 1 mps 759 mmHg 95%
    10:00 +2°C° 0 mm 1 mps 759 mmHg 92%
    11:00 +2°C° 0 mm 0 mps 759 mmHg 90%
    12:00 +3°C° 0 mm 1 mps 759 mmHg 89%
    13:00 +4°C° 0 mm 1 mps 759 mmHg 87%
    14:00 +3°C° 0 mm 2 mps 759 mmHg 86%
    15:00 +3°C° 0 mm 2 mps 758 mmHg 88%
    16:00 +2°C° 0 mm 2 mps 758 mmHg 90%
    17:00 +2°C° 0 mm 2 mps 757 mmHg 93%
    18:00 +2°C° 0.1 mm 2 mps 757 mmHg 94%
    19:00 +2°C° 0.1 mm 2 mps 757 mmHg 96%
    20:00 0°C° 0.1 mm 3 mps 756 mmHg 97%
    21:00 0°C° 0 mm 3 mps 756 mmHg 97%
    22:00 +1°C° 0 mm 3 mps 755 mmHg 97%
    23:00 +1°C° 0 mm 3 mps 755 mmHg 96%
    Show more